Location: Barcelona
(41.3830°N, 2.1830°E)
Time: 23:17:38
(UTC+02:00)

ISS - Pass Details

Date: 23 May 2019
Orbit: 408 x 418 km, 51.6° (Epoch: 26 May)

Event Time Altitude Azimuth Distance (km) Brightness Sun altitude
Rises 00:15:28 0° 300° (WNW) 2,354 0.9 -24.5°
Reaches altitude 10° 00:18:20 10° 326° (NW) 1,494 0.1 -24.7°
Maximum altitude 00:20:13 14° 1° (N) 1,266 -0.5 -24.9°
Drops below altitude 10° 00:22:07 10° 35° (NE) 1,496 -0.6 -25.0°
Enters shadow 00:23:40 - 53° (NE) 1,923 -0.2 -25.1°
